THORAD DELTA 1 DEB, 8160

Orbit data source: Space-Track

THORAD DELTA 1 DEB, 8160 is space debris in SSO originally from a launch on Fri, 15 Nov 1974 UTC launched from the Air Force Western Test Range (AFWTR). Debris objects in space refer to the collection of defunct objects orbiting the Earth. Examples of debris include non-operational satellites, rocket bodies, and fragments generated from explosions, collisions, or faulty payload assembly.

Loading next visibility...
Identifier
8160, 1974-089AA
Orbit
SSO
Country
Flag of USUS
Related business
Manufacturer
Unknown
Mission
Spacecraft
Bus & Motor
Unknown
Mass
Unknown
Launch date (UTC)
1974-11-15 (51 years ago)
Launch vehicle
Unknown
Launch site
Air Force Western Test Range (AFWTR)
Object type
Payload
Rocket body
Debris
Shape & HBR
Unknown shape, 0.1 m
Radar Cross Section
Small (<0.1 m²)

Expand to show TLE details & history
Last TLE update: 8 hours ago

TLE from 8 hours ago
0 THORAD DELTA 1 DEB
1 08160U 74089AA  25300.27352373  .00000023  00000-0  36830-3 0  9993
2 08160 101.7962  69.7283 0146508 180.0535 249.4128 12.63524029348441
Epoch: 2025-10-27T06:33Z
TLE epoch observation values (Epoch: 2025-10-27T06:33:52.450Z)
Latitude
65.17754°
Longitude
-91.31638°
Altitude
1,461.085 km
Speed
7.119 km/s
True Right ascension
02h 52m 07s
True Declination
65° 03' 29"
Sunlit
Object was in full shadow at epoch
Visualization orbit readout
Latitude
Unknown
Longitude
Unknown
Altitude
Unknown
Speed
Unknown
Apparent Right ascension
Unknown
Apparent Declination
Unknown
Sunlit
N/A
Visualization observer readout
Local Sidereal Time
10:02:38
Azimuth
Unknown
Elevation
Unknown
Doppler factor
Unknown
Orbital elements
Apogee altitude
1,520.007 km
Perigee altitude
1,291.92 km
Semi-major axis
7,784.101 km
Eccentricity
0.01465
Inclination
101.7962°
RAAN
69.7283°
Arg. of periapsis
180.0535°
True anomaly
247.85141°
Mean anomaly
249.4128°
Eccentric anomaly
248.63108°
Mean motion
3.16032 °/min
Orbital period
113.91 mins
BSTAR
0.0003683
Loading maneuver chart data...
Computing Atmospheric mass density...

Documentation

Showing up to 5 results
|